Temperature
10 10 10 10 10 10 10 10 10 11 11 10 9 9 9 9 10 9 9 10 10 10 10 10 10 10 10 11 10 11 11 11 11 11 11 11 11 11
9 9 9 9 9 9 9 9 10 10 10 9 9 9 9 9 9 9 9 9 9 10 10 10 10 10 10 10 10 10 10 10 10 10 11 11 11 11
9 9 9 9 9 9 9 9 9 9 9 9 9 9 9 9 9 9 9 9 9 9 9 9 9 9 10 10 10 10 10 10 10 10 10 10 10 11
8 8 8 8 8 8 9 9 9 9 9 8 8 8 8 8 8 8 8 8 8 9 9 9 9 9 9 9 9 10 10 10 10 10 10 10 10 10
8 8 8 8 8 8 8 8 8 8 8 8 8 8 8 8 8 8 8 8 8 8 8 9 9 9 9 9 9 9 9 9 9 9 9 10 10 10
8 7 7 7 7 7 8 8 8 8 8 8 8 7 7 7 7 7 7 7 8 8 8 8 8 8 8 8 9 9 9 9 9 9 9 9 9 9
7 7 7 7 7 7 7 7 7 7 7 7 7 7 7 7 7 7 7 7 7 7 7 8 8 8 8 8 8 8 8 8 8 9 9 9 9 9
7 7 7 7 7 7 7 7 7 7 7 7 7 7 7 7 7 7 6 7 7 7 7 7 7 7 7 7 7 8 8 8 8 8 8 8 9 9
7 7 7 7 7 6 7 6 6 7 7 6 6 6 6 6 6 6 6 6 6 6 7 7 7 7 7 7 7 7 7 7 8 8 8 8 8 8
7 7 6 6 7 6 6 6 6 6 6 6 6 6 6 6 6 6 6 6 6 6 6 6 6 6 7 7 7 7 7 7 7 7 7 8 8 8
6 6 6 6 6 6 6 5 5 6 6 6 6 6 6 6 6 6 6 6 6 6 6 6 6 6 6 6 6 7 7 7 7 7 7 7 7 7
6 6 6 6 6 6 5 5 5 5 5 5 5 5 5 5 6 5 5 5 5 5 6 5 5 5 5 6 6 6 6 6 6 6 7 7 7 6
6 6 6 6 6 6 5 5 5 5 5 5 5 5 5 5 5 5 5 5 5 5 5 5 5 5 5 5 5 5 6 6 6 6 6 6 6 6
5 5 5 5 5 5 5 5 5 5 5 4 4 4 4 4 5 5 5 5 5 5 5 5 5 5 4 4 5 5 5 5 5 5 6 6 6 6
5 5 5 5 5 5 5 5 4 4 4 4 4 4 4 4 4 4 4 4 4 4 4 4 4 4 4 4 4 5 5 5 5 5 5 5 5 5
5 5 5 5 5 4 4 4 4 4 4 4 4 4 4 4 4 4 4 4 4 4 4 4 4 4 4 4 4 4 4 4 4 5 5 5 5 5
4 4 4 4 4 4 4 4 4 4 3 3 3 3 3 3 3 3 3 3 3 4 4 4 4 4 4 4 4 4 4 4 4 4 4 4 5 5
4 4 4 4 4 4 3 3 3 3 3 3 3 3 3 3 3 3 3 3 3 3 3 3 3 3 4 4 4 4 4 4 4 4 4 4 4 4
4 3 3 3 3 3 3 3 3 3 3 3 3 3 3 3 3 3 3 3 3 3 3 3 3 3 3 3 3 4 3 4 4 4 4 3 4 4
3 3 3 3 3 3 3 3 3 3 3 3 3 3 2 2 2 2 2 2 2 2 2 2 2 2 2 2 2 3 3 3 3 3 3 3 3 3
3 3 3 3 3 3 3 3 3 3 3 2 2 2 2 2 2 2 2 2 2 2 2 2 2 2 2 2 2 3 3 3 3 3 3 3 3 3
3 3 3 3 2 2 3 3 2 2 2 2 2 2 2 2 2 2 2 2 2 2 2 2 2 2 2 2 2 2 2 2 3 3 3 3 2 2
2 2 2 2 2 2 2 2 2 2 2 2 2 2 2 2 2 2 1 1 1 1 1 1 1 1 1 1 1 2 2 2 2 2 2 3 3 3
Wind_Speed
2 2 2 1 2 2 2 3 3 4 3 1 1 2 2 2 3 3 2 4 6 6 5 6 7 6 7 7 8 8 7 7 6 6 6 6 6 5
2 2 2 2 1 2 2 2 3 4 3 1 2 2 2 2 3 3 2 1 3 5 5 5 6 6 6 6 6 7 7 6 6 5 5 5 6 5
2 2 2 2 2 2 2 2 2 3 3 3 2 2 2 2 2 2 2 2 1 3 4 4 4 5 5 5 5 6 6 6 6 5 5 5 6 6
2 3 3 2 3 2 2 2 2 3 3 4 3 2 3 3 2 2 2 2 2 2 2 4 4 4 5 5 5 5 5 5 5 5 5 5 5 5
3 3 3 3 3 2 3 3 2 2 3 3 3 2 2 2 2 2 2 2 2 1 1 1 2 3 3 4 4 4 4 4 4 5 5 5 5 5
3 4 4 4 4 4 3 3 3 3 3 3 3 2 2 2 2 2 2 2 2 2 2 2 2 1 1 2 3 3 3 3 4 4 5 5 5 5
4 4 3 3 4 4 3 4 3 3 3 3 3 2 2 1 2 2 3 2 2 2 3 2 2 2 1 1 2 3 2 2 3 3 4 5 5 5
4 4 3 3 3 3 4 5 5 5 4 3 3 3 3 2 2 3 3 3 3 2 3 3 2 2 2 2 2 2 2 2 3 3 3 4 5 5
4 4 3 3 4 4 4 5 4 5 6 6 5 5 4 3 3 4 3 4 4 2 3 4 3 3 3 2 1 2 3 3 3 3 3 4 5 5
5 4 4 4 3 4 4 4 4 4 5 5 5 5 4 4 4 5 5 5 4 2 2 4 3 4 3 3 2 3 4 4 4 4 4 5 5 6
4 4 4 4 2 5 5 5 5 4 3 3 4 4 3 3 4 3 3 3 3 2 2 4 4 4 4 3 2 4 5 5 5 5 5 5 7 7
4 4 3 4 3 5 6 5 5 4 4 3 4 4 4 3 4 4 3 4 4 3 2 3 3 3 3 3 3 3 4 4 5 6 5 5 6 5
3 3 3 2 3 5 6 4 4 5 4 4 4 3 3 3 4 4 4 4 5 4 2 3 3 4 4 4 4 3 3 3 4 5 5 5 5 5
4 3 2 3 4 4 4 3 4 5 3 3 4 3 3 3 3 4 4 5 5 5 4 4 4 4 5 5 4 3 4 4 4 4 4 5 6 7
3 3 2 2 4 4 3 3 4 4 3 3 4 4 3 4 3 3 4 4 5 5 5 6 6 5 6 6 5 5 4 4 4 4 4 4 4 4
2 1 1 2 3 2 3 3 3 3 3 4 4 3 3 3 3 3 3 3 4 4 4 5 6 6 6 7 6 6 5 4 4 4 4 5 4 4
2 2 1 2 2 2 2 2 3 3 4 4 3 3 3 3 3 3 3 3 4 4 4 3 4 5 6 6 6 6 5 5 4 4 4 5 5 4
3 2 2 2 2 3 3 3 3 3 3 3 4 4 4 4 3 3 3 4 5 5 4 3 2 3 3 4 5 6 5 5 4 4 5 5 5 4
3 2 3 3 3 3 3 3 3 3 3 3 4 4 4 4 4 3 4 4 4 5 4 3 3 3 5 5 3 4 5 5 4 4 4 5 6 5
3 3 3 3 3 3 3 3 3 3 3 3 3 3 4 4 4 4 4 4 5 5 4 4 4 5 6 6 6 6 6 5 4 5 5 5 5 4
3 3 3 3 3 3 3 3 3 3 3 3 3 4 4 4 3 4 4 5 5 5 5 5 4 5 5 5 5 5 4 5 6 5 5 4 4 4
4 4 4 4 4 4 3 3 4 4 4 4 4 3 4 4 4 5 4 4 5 5 6 5 4 4 4 5 6 6 6 5 5 7 6 6 4 4
4 4 4 4 4 4 4 4 4 4 4 4 4 4 4 4 4 5 5 5 5 5 5 5 4 4 5 5 6 6 6 6 4 4 4 5 6 6
Wind_Direction
339 335 322 325 309 302 284 273 278 275 270 283 295 319 318 332 339 314 346 31 15 17 20 19 15 20 28 28 27 33 36 38 36 35 35 33 30 26
327 323 323 313 322 306 283 278 281 278 277 305 299 311 323 311 322 315 328 28 29 21 18 15 14 21 29 32 31 31 32 32 32 28 27 27 26 23
305 305 303 314 302 292 287 277 268 266 263 271 279 291 289 292 315 309 309 315 4 28 18 18 20 22 28 29 30 30 29 29 29 24 22 21 24 24
287 288 287 283 279 282 282 274 270 267 265 268 266 274 283 293 295 296 318 325 324 34 13 14 15 18 24 25 23 20 17 18 20 17 13 12 13 12
279 280 282 274 270 267 268 270 266 264 265 259 269 285 276 290 291 299 300 316 319 333 299 334 359 5 16 18 16 12 8 10 14 9 5 2 358 356
277 280 280 277 277 272 265 264 261 255 255 256 260 266 271 294 292 291 297 303 310 318 320 293 269 255 331 5 359 356 360 10 10 7 1 352 347 345
262 265 275 292 316 303 287 276 264 256 251 249 250 257 258 272 284 283 289 294 298 310 302 291 285 279 254 277 325 336 358 359 355 350 349 348 339 335
260 257 253 250 251 254 280 294 295 272 262 255 253 255 260 260 275 277 290 291 296 303 296 292 290 287 287 302 333 317 314 328 333 331 328 334 334 328
258 253 255 257 253 249 238 235 252 278 286 269 262 262 265 264 268 267 271 278 289 307 290 279 287 287 282 283 260 281 289 291 299 304 312 316 322 324
258 255 252 248 253 260 253 250 253 255 263 264 265 265 273 272 263 267 269 270 271 270 278 278 287 288 285 268 212 241 259 270 277 283 290 299 299 301
257 257 255 249 239 261 253 251 252 248 234 260 297 294 306 298 283 269 272 266 273 267 266 277 284 290 282 266 241 232 243 250 259 265 279 291 293 279
254 255 263 274 234 256 253 254 255 256 250 236 239 240 244 227 240 250 259 268 277 270 270 279 286 291 280 266 278 272 256 244 240 240 251 273 291 279
253 253 244 244 239 250 267 265 274 275 256 253 253 252 245 242 239 251 251 257 265 269 272 264 276 274 271 281 282 274 272 278 267 256 237 241 258 268
254 255 241 207 225 241 257 286 279 271 259 257 256 256 255 256 255 255 259 260 266 269 262 252 264 267 272 280 286 279 273 277 276 272 271 255 249 248
271 294 277 196 219 224 221 238 244 249 252 255 259 265 266 265 262 262 261 263 267 268 260 254 258 262 259 265 277 279 280 277 270 273 273 266 263 263
263 235 184 201 228 239 220 227 249 259 260 259 260 267 273 264 258 262 265 260 263 271 267 258 256 261 262 265 267 271 272 268 262 271 273 269 267 260
255 237 229 229 236 239 244 251 256 254 258 265 266 263 261 262 265 264 262 265 263 267 276 280 270 265 265 269 264 262 265 268 264 265 267 267 265 260
225 225 233 234 237 249 256 258 260 263 266 269 264 261 259 259 262 263 258 260 266 266 271 281 284 282 273 268 259 265 269 270 270 267 266 265 268 269
219 233 243 247 249 250 252 256 263 269 261 259 263 263 262 257 257 259 258 262 264 269 267 263 261 263 269 280 270 249 270 276 272 270 269 267 268 269
232 242 251 258 260 262 264 265 268 270 263 257 260 260 261 258 258 259 258 264 268 273 269 261 255 255 260 271 280 286 258 259 262 264 269 270 275 274
242 247 251 255 256 259 265 266 265 264 264 261 261 263 263 261 263 266 265 267 267 268 271 272 272 265 270 273 272 276 282 258 255 259 259 258 268 267
246 250 253 259 259 258 260 262 263 261 261 257 258 260 262 259 259 265 267 268 267 270 274 279 277 266 261 259 267 278 286 287 265 252 252 246 257 256
245 249 252 254 256 258 256 257 262 266 263 260 257 257 259 261 262 261 260 261 266 274 277 277 274 264 262 262 268 276 282 285 284 276 264 235 237 258
Height
1527 1527 1527 1527 1527 1526 1527 1527 1528 1527 1526 1526 1525 1524 1523 1522 1520 1520 1519 1517 1515 1514 1513 1512 1512 1511 1510 1510 1509 1508 1507 1507 1506 1506 1506 1506 1506 1506
1525 1525 1525 1525 1525 1524 1525 1525 1525 1525 1524 1524 1523 1522 1521 1520 1519 1518 1517 1515 1514 1513 1512 1511 1511 1510 1509 1509 1508 1507 1507 1506 1505 1505 1505 1505 1505 1505
1525 1524 1524 1523 1523 1523 1523 1522 1522 1522 1522 1522 1521 1520 1519 1518 1517 1516 1515 1514 1513 1511 1510 1510 1509 1508 1508 1507 1507 1506 1506 1505 1505 1504 1504 1504 1503 1503
1523 1522 1522 1521 1521 1521 1521 1520 1520 1520 1520 1519 1519 1518 1517 1516 1515 1514 1513 1512 1511 1510 1509 1508 1507 1507 1506 1506 1506 1505 1505 1504 1503 1503 1503 1502 1502 1502
1521 1520 1520 1520 1519 1519 1518 1518 1518 1517 1517 1517 1516 1515 1514 1514 1513 1512 1512 1510 1510 1509 1507 1507 1506 1505 1505 1504 1504 1503 1503 1502 1502 1502 1501 1501 1500 1500
1519 1518 1518 1518 1517 1517 1516 1516 1515 1515 1514 1514 1513 1513 1512 1511 1511 1510 1510 1509 1508 1507 1506 1505 1505 1504 1503 1502 1502 1501 1501 1500 1500 1500 1499 1499 1498 1498
1516 1515 1515 1514 1513 1513 1513 1513 1513 1513 1512 1511 1511 1511 1510 1509 1509 1508 1508 1507 1506 1505 1504 1504 1503 1502 1501 1500 1499 1499 1498 1498 1498 1497 1497 1496 1496 1495
1513 1512 1512 1511 1510 1510 1510 1509 1510 1510 1510 1509 1509 1508 1508 1507 1506 1506 1506 1505 1504 1504 1502 1502 1501 1500 1499 1498 1497 1497 1496 1496 1495 1495 1494 1494 1493 1493
1510 1509 1508 1508 1507 1507 1507 1506 1506 1506 1506 1506 1506 1505 1505 1504 1504 1504 1503 1503 1502 1501 1500 1499 1499 1498 1497 1496 1495 1494 1494 1493 1492 1492 1491 1491 1490 1490
1507 1506 1505 1505 1504 1504 1504 1503 1503 1503 1502 1502 1502 1502 1502 1501 1501 1501 1500 1500 1500 1499 1498 1497 1496 1495 1495 1494 1492 1492 1491 1490 1490 1489 1489 1488 1488 1487
1503 1503 1502 1502 1501 1500 1500 1500 1500 1499 1499 1498 1498 1498 1498 1497 1498 1498 1497 1497 1496 1496 1495 1495 1493 1492 1492 1491 1490 1488 1488 1487 1487 1486 1486 1485 1485 1485
1499 1499 1498 1498 1497 1497 1497 1497 1496 1496 1496 1495 1495 1495 1495 1494 1494 1494 1494 1494 1493 1493 1492 1492 1491 1490 1489 1488 1487 1486 1485 1484 1484 1483 1483 1482 1482 1481
1496 1495 1495 1494 1494 1493 1493 1494 1493 1493 1492 1492 1492 1492 1492 1491 1491 1491 1491 1491 1490 1490 1489 1489 1488 1487 1487 1485 1484 1483 1482 1481 1481 1480 1480 1479 1479 1478
1493 1492 1491 1491 1490 1490 1490 1490 1490 1489 1489 1489 1489 1489 1488 1488 1488 1488 1487 1487 1487 1487 1486 1485 1484 1484 1483 1482 1481 1479 1479 1478 1478 1477 1477 1476 1476 1475
1490 1489 1488 1488 1487 1487 1487 1487 1487 1487 1486 1486 1486 1486 1485 1485 1484 1484 1484 1483 1483 1483 1482 1481 1481 1480 1480 1479 1477 1476 1475 1474 1474 1473 1473 1472 1472 1471
1486 1485 1485 1485 1484 1484 1484 1484 1484 1484 1483 1483 1483 1482 1482 1481 1481 1480 1480 1479 1479 1478 1478 1477 1477 1476 1476 1475 1474 1472 1472 1471 1470 1470 1469 1469 1468 1467
1483 1482 1482 1482 1481 1481 1481 1481 1481 1480 1480 1480 1479 1478 1478 1478 1477 1476 1476 1476 1475 1474 1474 1473 1472 1472 1471 1471 1470 1469 1468 1467 1466 1465 1465 1464 1464 1463
1480 1479 1479 1479 1479 1478 1478 1478 1477 1477 1476 1476 1475 1475 1474 1474 1473 1473 1472 1472 1471 1471 1470 1469 1468 1468 1467 1466 1466 1465 1464 1463 1462 1461 1461 1460 1459 1459
1477 1476 1476 1476 1476 1476 1475 1475 1474 1473 1472 1472 1472 1471 1471 1470 1470 1469 1469 1468 1468 1467 1466 1465 1464 1464 1463 1462 1461 1461 1460 1459 1458 1457 1457 1456 1455 1455
1474 1473 1473 1473 1473 1473 1472 1471 1471 1470 1469 1469 1468 1467 1467 1466 1466 1465 1465 1464 1463 1462 1461 1461 1460 1460 1459 1459 1457 1456 1456 1455 1453 1452 1452 1452 1452 1451
1470 1470 1470 1470 1470 1469 1469 1468 1467 1467 1466 1465 1464 1463 1463 1462 1461 1461 1460 1460 1459 1458 1457 1456 1455 1455 1455 1455 1454 1452 1451 1451 1449 1449 1448 1448 1447 1446
1468 1467 1467 1467 1467 1466 1466 1465 1464 1463 1462 1461 1460 1459 1459 1458 1457 1456 1456 1455 1455 1454 1453 1452 1451 1451 1451 1450 1449 1448 1447 1447 1446 1445 1445 1444 1443 1442
1465 1464 1464 1463 1463 1463 1462 1461 1461 1460 1459 1458 1457 1456 1455 1454 1453 1452 1452 1451 1450 1449 1449 1448 1447 1447 1447 1446 1445 1444 1443 1442 1441 1441 1441 1440 1440 1439